{"data":{"norad_id":52476,"intl_designator":"2022-049AB","name":"STARLINK-3835","alt_names":[],"object_type":"PAYLOAD","status":"ACTIVE","operator":null,"country":"US","launch_date":"2022-05-06","launch_site_code":"AFETR","launch_vehicle":null,"mission":null,"orbit_class":"UNKNOWN","rcs_meters":null,"size_class":null,"mass_kg":null,"dimensions":null,"purposes":["comms"],"wikipedia_slug":null,"has_3d_model":false,"image_url":null,"decayed_at":null,"tle_current":{"epoch":"2026-05-25T04:26:43.821024Z","epoch_age_seconds":63027,"freshness":"FRESH","line1":"1 52476U 22049AB  26145.18522941 -.00001252  00000+0 -60590-4 0  9996","line2":"2 52476  53.2129  65.9590 0001567  73.5097 286.6067 15.08844154225174","mean_motion":15.08844154,"eccentricity":0.0001567,"inclination_deg":53.2129,"raan_deg":65.959,"arg_perigee_deg":73.5097,"mean_anomaly_deg":286.6067,"bstar":-6.059e-5,"rev_number":22517,"period_min":95.437291928561,"perigee_km":538.64666200975,"apogee_km":540.81472174438,"semimajor_km":6917.8676918771,"source":"CELESTRAK","updated_at":"2026-05-25T13:38:17.154524Z"}}}